Погода в Ажене

Франция     44°12′18″N   0°37′33″E
темп.,
°C
ветер,
м/с
пор.,
м/с
влажн.,
%
обл.,
%
осадки,
мм/ч
давл.,
гПа
погр.,
м
8 марта, пн
пн801:00+8ссв469097 0.9 1019240
04:00+8с268984 0.0 1018243
07:00+6сз229376 0.0 101842
10:00+9ссз358149 0.0 1019363
13:00+13сз446254 0.0 10181087
16:00+13сз455894 0.0 10171260
19:00+9сз377972 0.1 1017150
22:00+6сз37830 0.0 1020190
9 марта, вт
вт901:00+5сз35870 0.0 1020113
04:00+3сз35890 0.0 1020141
07:00+2зсз35900 0.0 1021130
10:00+5сз45730 0.0 1022348
13:00+10сз45522 0.0 1021931
16:00+11зсз45490 0.0 10201145
19:00+7зсз35660 0.0 102183
22:00+4ссз23740 0.0 102431
10 марта, ср
ср1001:00+2сз22840 0.0 102425
04:00+1зсз11880 0.0 102322
07:00+1юз11890 0.0 102422
10:00+6ююв22700 0.0 1024281
13:00+10ююз23530 0.0 1023775
16:00+12ююз344740 0.0 1021871
19:00+9ю236270 0.0 102224
22:00+8ю2364100 0.0 102331
11 марта, чт
чт1101:00+9ю2464100 0.0 1023102
04:00+9ююв1262100 0.0 102231
07:00+8юв2368100 0.0 102240
10:00+12ююв2366100 0.0 1022150
13:00+16ююз466299 0.0 1021970
16:00+17з5957100 0.0 10201712
19:00+12сз51176100 0.1 1021516
22:00+10зсз5987100 0.4 1023701
12 марта, пт
пт1201:00+9зюз4893100 1.9 1024516
04:00+9зюз4792100 1.3 1023370
07:00+8юз2593100 1.5 1022191
10:00+11зюз467997 0.1 1022678
13:00+12з566997 1.1 10211174
16:00+13з796768 1.1 10191314
19:00+9зсз4107958 1.6 1020305
22:00+7зюз498918 0.0 1021279